EW0349 Weather Reports


time (UTC)temp
C
wind
direction
speed
KPH
gust
KPH
rain 1hr
cm
rain 24hr
cm
rain mn
cm
humidity
%
barometer
mb
20260902093000 12 234 0.0 0.0 0.00 0.00 0.00 29 1010.4
20260902091612 13 234 0.0 0.0 0.00 0.00 0.00 33 1010.6
20260902090056 13 234 0.0 1.6 0.00 0.00 0.00 35 1010.6
20260902084554 13 180 0.0 3.2 0.00 0.00 0.00 38 1010.9
20260902083055 13 180 0.0 0.0 0.00 0.00 0.00 42 1010.9
20260902081550 13 180 0.0 1.6 0.00 0.00 0.00 46 1011.0
20260902080050 13 180 0.0 4.8 0.00 0.00 0.00 48 1011.1
20260902074546 14 136 0.0 8.0 0.00 0.00 0.00 48 1011.0
20260902073048 14 215 0.0 4.8 0.00 0.00 0.00 49 1011.0
20260902071548 14 205 0.0 8.0 0.00 0.00 0.00 50 1011.2
20260902070047 14 286 0.0 8.0 0.00 0.00 0.00 47 1011.3
20260902064541 14 203 0.0 6.4 0.00 0.00 0.00 45 1011.6
20260902063034 15 203 0.0 8.0 0.00 0.00 0.00 45 1011.7
20260902061527 15 124 0.0 8.0 0.00 0.00 0.00 45 1011.7
20260902060023 15 213 1.6 9.7 0.00 0.00 0.00 45 1011.9
20260902054517 15 155 0.0 8.0 0.00 0.00 0.00 46 1012.0
20260902053015 15 192 1.6 8.0 0.00 0.00 0.00 46 1012.0
20260902051511 15 252 0.0 6.4 0.00 0.00 0.00 46 1012.1
20260902050008 15 210 0.0 1.6 0.00 0.00 0.00 47 1012.0
20260902044600 15 209 0.0 4.8 0.00 0.00 0.00 47 1012.1
20260902043100 15 179 0.0 4.8 0.00 0.00 0.00 48 1012.0
20260902041558 15 178 0.0 3.2 0.00 0.00 0.00 49 1011.9
20260902040050 15 178 0.0 0.0 0.00 0.00 0.00 49 1012.0
20260902034543 15 178 1.6 4.8 0.00 0.00 0.00 50 1011.9
20260902033039 15 178 0.0 6.4 0.00 0.00 0.00 51 1011.9
20260902031534 15 178 0.0 3.2 0.00 0.00 0.00 52 1011.9
20260902030030 15 257 0.0 3.2 0.00 0.00 0.00 54 1011.8
20260902024525 16 275 0.0 4.8 0.00 0.00 0.00 55 1011.7
20260902023020 16 291 0.0 6.4 0.00 0.00 0.00 55 1011.7
20260902021516 16 221 0.0 9.7 0.00 0.00 0.00 55 1011.7
20260902020019 16 216 3.2 8.0 0.00 0.00 0.00 55 1011.8
20260902014509 16 194 3.2 9.7 0.00 0.00 0.00 54 1011.6
20260902013008 15 184 1.6 4.8 0.00 0.00 0.00 52 1011.6
20260902011603 15 292 0.0 9.7 0.00 0.00 0.00 53 1011.6
20260902010054 16 248 1.6 17.7 0.00 0.00 0.00 56 1011.6
20260902004550 16 191 3.2 11.3 0.00 0.00 0.00 60 1011.6
20260902003046 17 288 1.6 11.3 0.00 0.00 0.00 61 1011.3
20260902001541 17 266 1.6 20.9 0.00 0.00 0.00 61 1011.2
20260902000138 18 284 1.6 6.4 0.00 0.00 0.00 59 1011.0
20260901234531 18 316 0.0 11.3 0.00 0.00 0.00 59 1010.9
20260901233027 18 284 3.2 12.9 0.00 0.00 0.00 58 1011.1
20260901231523 18 267 3.2 6.4 0.00 0.00 0.00 58 1011.1
20260901230029 18 194 1.6 8.0 0.00 0.00 0.00 59 1011.1
20260901224519 18 221 3.2 11.3 0.00 0.00 0.00 58 1011.2
20260901223010 18 181 1.6 8.0 0.00 0.00 0.00 59 1011.1
20260901221509 18 293 3.2 11.3 0.00 0.00 0.00 58 1011.2
20260901220101 18 293 3.2 9.7 0.00 0.00 0.00 58 1011.2
20260901214600 18 287 3.2 8.0 0.00 0.00 0.00 58 1011.1
20260901213053 18 239 1.6 9.7 0.00 0.00 0.00 58 1011.0
20260901211548 18 293 1.6 11.3 0.00 0.00 0.00 58 1011.1
20260901210056 18 290 1.6 11.3 0.00 0.00 0.00 58 1011.0
20260901204542 17 169 3.2 9.7 0.00 0.00 0.00 58 1011.0
20260901203045 18 298 3.2 9.7 0.00 0.00 0.00 57 1011.1
20260901201529 18 79 3.2 12.9 0.00 0.00 0.00 56 1011.2
20260901200027 18 200 3.2 11.3 0.00 0.00 0.00 56 1011.1
20260901194521 17 171 3.2 8.0 0.00 0.00 0.00 56 1011.3
20260901193016 17 190 3.2 14.5 0.00 0.00 0.00 55 1011.5
20260901191514 17 265 1.6 8.0 0.00 0.00 0.00 54 1011.6
20260901190009 17 281 1.6 4.8 0.00 0.00 0.00 53 1011.7
20260901184502 17 217 3.2 8.0 0.00 0.00 0.00 53 1011.8
20260901183059 16 239 3.2 14.5 0.00 0.00 0.00 48 1011.9
20260901181555 16 207 3.2 16.1 0.00 0.00 0.00 44 1012.0
20260901180050 16 15 0.0 6.4 0.00 0.00 0.00 37 1012.1
20260901174549 16 201 1.6 9.7 0.00 0.00 0.00 35 1012.0
20260901173042 15 303 1.6 6.4 0.00 0.00 0.00 10 1012.0
20260901171541 15 215 3.2 11.3 0.00 0.00 0.00 14 1011.9
20260901170032 15 215 3.2 9.7 0.00 0.00 0.00 17 1012.0
20260901164533 15 188 0.0 6.4 0.00 0.00 0.00 7 1011.9
20260901163026 14 235 0.0 4.8 0.00 0.00 0.00 100 1011.9
20260901161519 13 203 0.0 4.8 0.00 0.00 0.00 100 1012.1
20260901160015 13 201 0.0 3.2 0.00 0.00 0.00 100 1012.1
20260901154520 13 194 0.0 3.2 0.00 0.00 0.00 100 1012.1
20260901153006 13 198 0.0 4.8 0.00 0.00 0.00 100 1012.0
20260901151502 13 197 0.0 6.4 0.00 0.00 0.00 100 1012.1
20260901150101 13 207 1.6 6.4 0.00 0.00 0.00 6 1012.0
20260901144552 13 227 0.0 3.2 0.00 0.00 0.00 15 1011.9
20260901143059 13 244 0.0 4.8 0.00 0.00 0.00 23 1011.8
20260901141548 14 189 3.2 9.7 0.00 0.00 0.00 29 1011.7
20260901140039 14 187 0.0 6.4 0.00 0.00 0.00 30 1011.5
20260901134539 14 195 0.0 4.8 0.00 0.00 0.00 29 1011.5
20260901133041 13 204 0.0 3.2 0.00 0.00 0.00 29 1011.3
20260901131525 13 204 0.0 1.6 0.00 0.00 0.00 29 1011.3
20260901130020 13 204 0.0 1.6 0.00 0.00 0.00 27 1011.4
20260901124517 13 204 0.0 0.0 0.00 0.00 0.00 25 1011.3
20260901123012 13 204 0.0 1.6 0.00 0.00 0.00 24 1011.3
20260901121508 13 204 0.0 3.2 0.00 0.00 0.00 23 1011.4
20260901120003 13 204 0.0 3.2 0.00 0.00 0.00 23 1011.3
20260901114601 13 204 0.0 1.6 0.00 0.00 0.00 21 1011.3
20260901113059 13 204 0.0 3.2 0.00 0.00 0.00 20 1011.3
20260901111552 13 204 0.0 3.2 0.00 0.00 0.00 19 1011.1
20260901110050 13 205 0.0 1.6 0.00 0.00 0.00 17 1011.1
20260901104546 13 205 0.0 3.2 0.00 0.00 0.00 16 1011.0
20260901103036 12 207 1.6 6.4 0.00 0.00 0.00 13 1011.0
20260901101532 12 216 0.0 4.8 0.00 0.00 0.00 9 1010.9
20260901100030 12 234 0.0 4.8 0.00 0.00 0.00 12 1011.0
20260901094529 12 176 0.0 3.2 0.00 0.00 0.00 13 1010.9